Date String (YYYY-MM-DD hh:mm:ss) UTC,Instrument flags,Ambient pressure (hPa),Sample flow (lpm),Bypass flow (lpm),Sample temperature (°C),Ambient temperature (°C),ASC tube jacket temperature (°C),LED temperature (°C),Box temperature (°C),Sample RH (%),Span deviation,Mass concentration (μg/m³),Mass concentration (μg/m³),Mass concentration (μg/m³)
DateTimeUTC,F1_M11,P_M11,Q1_M11,Q2_M11,T1_M11,T2_M11,T3_M11,T4_M11,T5_M11,U1_M11,ZSPAN_M11,X2_M11,X0_M11,X1_M11
2021-08-30 22:00:00,,0823.7,4.99,0.00,29.0,27.5,00.0,38.0,30.9,12.1,0003.0,0030.50,0040.05,0029.21
2021-08-30 22:01:00,,0823.8,5.00,0.00,29.1,27.9,00.0,38.1,31.0,12.5,0003.0,0030.44,0039.92,0029.18
2021-08-30 22:02:00,,0823.7,5.00,0.00,29.2,28.2,00.0,38.1,31.1,12.0,0002.8,0030.51,0039.53,0029.18
2021-08-30 22:03:00,,0823.7,5.00,0.00,29.2,28.1,00.0,38.1,31.1,12.4,0002.9,0030.54,0040.38,0029.18
2021-08-30 22:04:00,,0823.7,5.00,0.00,29.2,26.6,00.0,38.1,30.7,12.5,0002.8,0030.50,0040.21,0029.15
2021-08-30 22:05:00,,0823.7,4.99,0.00,29.0,25.8,00.0,38.1,30.5,12.1,0002.8,0030.54,0040.30,0029.15
2021-08-30 22:06:00,,0823.7,5.01,0.00,29.0,26.2,00.0,38.1,30.6,11.9,0002.7,0030.54,0040.85,0029.13
2021-08-30 22:07:00,,0823.7,5.01,0.00,29.0,26.6,00.0,38.1,30.7,12.1,0002.7,0030.54,0041.44,0029.10
2021-08-30 22:08:00,,0823.7,4.99,0.00,29.0,27.1,00.0,38.1,30.8,12.2,0002.7,0030.48,0041.51,0029.02
2021-08-30 22:09:00,,0823.7,5.00,0.00,29.0,27.5,00.0,38.1,30.9,12.0,0002.6,0030.42,0041.52,0028.98
2021-08-30 22:10:00,,0823.7,5.01,0.00,29.1,27.8,00.0,38.1,31.0,11.5,0002.5,0030.42,0041.61,0028.98
2021-08-30 22:11:00,,0823.7,4.99,0.00,29.2,28.1,00.0,38.1,31.1,11.6,0002.5,0030.38,0041.57,0028.98
2021-08-30 22:12:00,,0823.7,5.00,0.00,29.2,27.5,00.0,38.1,30.9,11.6,0002.6,0030.37,0041.30,0028.97
2021-08-30 22:13:00,,0823.7,5.00,0.00,29.1,26.0,00.0,38.1,30.5,12.0,0002.6,0030.40,0042.32,0028.99
2021-08-30 22:14:00,,0823.7,5.01,0.00,29.0,26.0,00.0,38.1,30.5,12.8,0002.4,0030.42,0042.57,0028.99
2021-08-30 22:15:00,,0823.7,4.99,0.00,29.0,26.4,00.0,38.1,30.6,13.1,0002.5,0030.49,0042.71,0028.99
2021-08-30 22:16:00,,0823.7,5.01,0.00,29.0,26.8,00.0,38.0,30.7,13.5,0002.6,0030.44,0042.81,0028.95
2021-08-30 22:17:00,,0823.7,4.99,0.00,29.0,27.3,00.0,38.0,30.8,12.4,0002.8,0030.43,0042.37,0028.94
2021-08-30 22:18:00,,0823.7,5.01,0.00,29.1,27.7,00.0,38.0,30.9,12.1,0002.9,0030.42,0042.27,0028.92
2021-08-30 22:19:00,,0823.7,5.00,0.00,29.1,28.0,00.0,38.1,31.0,11.6,0002.8,0030.47,0042.76,0028.93
2021-08-30 22:20:00,,0823.7,5.00,0.00,29.2,28.3,00.0,38.1,31.1,11.5,0002.7,0030.44,0042.65,0028.92
2021-08-30 22:21:00,,0823.7,5.00,0.00,29.2,27.6,00.0,38.1,31.0,11.2,0002.7,0030.41,0042.71,0028.87
2021-08-30 22:22:00,,0823.7,5.00,0.00,29.1,26.0,00.0,38.1,30.5,11.4,0002.6,0030.40,0042.71,0028.82
2021-08-30 22:23:00,,0823.7,5.01,0.00,29.0,25.9,00.0,38.1,30.4,11.6,0002.7,0030.36,0042.04,0028.79
2021-08-30 22:24:00,,0823.7,5.00,0.00,29.0,26.4,00.0,38.1,30.6,11.6,0002.6,0030.28,0040.96,0028.73
2021-08-30 22:25:00,,0823.7,5.01,0.00,29.0,26.8,00.0,38.1,30.6,11.1,0002.9,0030.23,0040.65,0028.70
2021-08-30 22:26:00,,0823.6,5.01,0.00,29.0,27.2,00.0,38.0,30.8,11.5,0002.9,0030.14,0040.48,0028.70
2021-08-30 22:27:00,,0823.7,4.99,0.00,29.1,27.6,00.0,38.1,30.9,11.7,0002.8,0030.09,0040.29,0028.69
2021-08-30 22:28:00,,0823.7,5.00,0.00,29.1,27.9,00.0,38.1,31.0,11.5,0002.6,0029.98,0040.05,0028.63
2021-08-30 22:29:00,,0823.7,4.99,0.00,29.2,28.2,00.0,38.1,31.1,11.6,0002.6,0029.86,0039.68,0028.57
2021-08-30 22:30:00,,0823.7,5.00,0.00,29.2,27.7,00.0,38.1,31.0,11.6,0002.7,0029.75,0039.19,0028.52
2021-08-30 22:31:00,,0823.7,5.01,0.00,29.1,26.1,00.0,38.1,30.6,12.2,0002.7,0029.73,0039.23,0028.48
2021-08-30 22:32:00,,0823.7,4.99,0.00,29.0,25.9,00.0,38.1,30.5,12.5,0002.7,0029.70,0039.42,0028.46
2021-08-30 22:33:00,,0823.7,5.00,0.00,29.0,26.4,00.0,38.1,30.6,12.5,0002.7,0029.65,0039.85,0028.40
2021-08-30 22:34:00,,0823.7,5.01,0.00,29.0,26.8,00.0,38.1,30.7,12.2,0002.6,0029.64,0040.08,0028.37
2021-08-30 22:35:00,,0823.7,5.00,0.00,29.0,27.3,00.0,38.1,30.8,11.7,0002.5,0029.59,0039.93,0028.32
2021-08-30 22:36:00,,0823.7,5.00,0.00,29.1,27.6,00.0,38.1,30.9,11.8,0002.5,0029.46,0039.10,0028.21
2021-08-30 22:37:00,,0823.7,5.01,0.00,29.1,28.0,00.0,38.1,31.0,12.4,0002.4,0029.33,0038.70,0028.09
2021-08-30 22:38:00,,0823.7,5.00,0.00,29.2,28.1,00.0,38.1,31.1,11.9,0002.3,0029.24,0038.45,0028.00
2021-08-30 22:39:00,,0823.7,4.98,0.00,29.2,26.8,00.0,38.1,30.7,11.8,0002.2,0029.19,0038.41,0027.94
2021-08-30 22:40:00,,0823.7,5.01,0.00,29.0,25.7,00.0,38.1,30.4,11.7,0002.4,0029.13,0037.92,0027.89
2021-08-30 22:41:00,,0823.7,5.00,0.00,28.9,26.0,00.0,38.1,30.4,12.0,0002.4,0029.02,0037.63,0027.82
2021-08-30 22:42:00,,0823.7,4.99,0.00,28.9,26.4,00.0,38.0,30.6,12.6,0002.4,0028.94,0037.32,0027.74
2021-08-30 22:43:00,,0823.7,5.00,0.00,28.9,26.9,00.0,38.0,30.7,12.4,0002.6,0028.86,0036.90,0027.68
2021-08-30 22:44:00,,0823.7,5.01,0.00,29.0,27.3,00.0,38.0,30.8,12.1,0002.7,0028.83,0036.94,0027.66
2021-08-30 22:45:00,,0823.7,5.00,0.00,29.0,27.7,00.0,38.0,30.9,12.0,0002.8,0028.83,0037.78,0027.63
2021-08-30 22:46:00,,0823.7,5.01,0.00,29.1,28.0,00.0,38.0,31.0,11.7,0002.8,0028.83,0037.91,0027.60
2021-08-30 22:47:00,,0823.7,5.00,0.00,29.2,28.3,00.0,38.1,31.1,11.7,0002.6,0028.82,0038.12,0027.65
2021-08-30 22:48:00,,0823.7,5.00,0.00,29.2,27.9,00.0,38.1,31.0,11.7,0002.6,0028.83,0038.08,0027.68
2021-08-30 22:49:00,,0823.7,5.00,0.00,29.1,26.3,00.0,38.1,30.6,12.2,0002.5,0028.92,0038.85,0027.72
2021-08-30 22:50:00,,0823.7,5.01,0.00,29.0,25.8,00.0,38.1,30.4,12.2,0002.2,0029.00,0039.55,0027.78
2021-08-30 22:51:00,,0823.7,5.00,0.00,29.0,26.2,00.0,38.1,30.5,12.2,0002.1,0029.05,0040.55,0027.80
2021-08-30 22:52:00,,0823.7,4.98,0.00,29.0,26.7,00.0,38.0,30.6,12.7,0002.0,0029.11,0040.62,0027.85
2021-08-30 22:53:00,,0823.7,5.00,0.00,29.0,27.1,00.0,38.0,30.7,12.8,0002.1,0029.17,0040.90,0027.88
2021-08-30 22:54:00,,0823.7,5.00,0.00,29.0,27.5,00.0,38.0,30.9,12.8,0001.9,0029.27,0041.49,0027.94
2021-08-30 22:55:00,,0823.7,5.00,0.00,29.1,27.8,00.0,38.0,31.0,12.8,0001.9,0029.30,0042.46,0027.97
2021-08-30 22:56:00,,0823.7,4.99,0.00,29.2,28.1,00.0,38.1,31.1,13.0,0001.6,0029.33,0042.95,0028.02
2021-08-30 22:57:00,,0823.7,5.00,0.00,29.2,28.4,00.0,38.1,31.2,12.7,0001.7,0029.34,0043.87,0028.06
2021-08-30 22:58:00,,0823.6,5.00,0.00,29.2,27.3,00.0,38.1,30.9,12.4,0001.8,0029.48,0044.81,0028.10
2021-08-30 22:59:00,,0823.6,5.00,0.00,29.1,25.8,00.0,38.1,30.4,12.9,0001.8,0029.62,0045.29,0028.16
